Regional Weather Roundup
Issued by NWS

Home | Current Version | Previous Version | Graphics & Text | Print | Product List | Glossary On
Versions: 1 2 3 4 5 6 7 8 9 10 11 12 13 14 15 16 17 18 19 20 21 22 23 24 25 26 27 28 29 30 31 32 33 34 35 36 37 38 39 40 41 42 43 44 45 46 47 48 49 50
000
ASUS43 KFSD 070602
RWRSD

WEATHER ROUNDUP FOR SOUTH DAKOTA
NATIONAL WEATHER SERVICE SIOUX FALLS SD
100 AM CDT THU MAY 07 2015

NOTE: "FAIR" INDICATES FEW OR NO CLOUDS BELOW 12,000 FEET WITH NO
SIGNIFICANT WEATHER AND/OR OBSTRUCTIONS TO VISIBILITY.


SDZ001>005-009-010-012>017-070700-
NORTHWEST AND NORTH CENTRAL SOUTH DAKOTA

CITY           SKY/WX    TMP DP  RH WIND       PRES   REMARKS
BUFFALO          N/A     48  45  89 NW25      29.69S
FAITH            N/A     52  49  89 NW18      29.63R
MOBRIDGE       CLOUDY    57  56  96 CALM      29.60R FOG
$$

SDZ012>016-024>037-041>051-057-063-072>074-070700-
SOUTHWEST AND SOUTH CENTRAL SOUTH DAKOTA

CITY           SKY/WX    TMP DP  RH WIND       PRES   REMARKS
RAPID CTY ARPT CLOUDY    49  45  86 NW30G40   29.72S
PIERRE         CLOUDY    54  53  97 NW5       29.60S
CUSTER         CLOUDY    44  38  79 NW10G17   29.76S
ELLSWORTH AFB  CLOUDY    48  46  93 NW26G36   29.72
PHILIP         CLOUDY    54  52  93 NW23G29   29.64S
PINE RIDGE     CLOUDY    50  45  83 N16G24    29.73R
WINNER         CLOUDY    57  54  89 SW3       29.60F
$$

SDZ004>011-016>023-039-040-070700-
NORTHEAST SOUTH DAKOTA

CITY           SKY/WX    TMP DP  RH WIND       PRES   REMARKS
ABERDEEN       RAIN      59  58  96 SE3       29.63F FOG
WATERTOWN      LGT RAIN  63  58  83 SE18G25   29.66F
BROOKINGS      CLOUDY    63  59  88 SE17G25   29.68F
SISSETON         N/A     61  60  97 S14       29.66F
$$

SDZ017-020-022-023-036>040-048>070-070700-
SOUTHEAST SOUTH DAKOTA

CITY           SKY/WX    TMP DP  RH WIND       PRES   REMARKS
SIOUX FALLS    CLOUDY    63  59  87 SE22G28   29.66S
HURON          LGT RAIN  61  60  97 S7        29.61S FOG
MITCHELL       CLOUDY    63  61  93 S13       29.62S
YANKTON        CLOUDY    63  57  82 SE13G18   29.63S
$$

ABBREVIATIONS USED IN REMARKS
   TC - TEMPERATURE IN CELSIUS
  WCI - WIND CHILL INDEX
   HX - HEAT INDEX
  VSB - VISIBILITY



USA.gov is the U.S. government's official web portal to all federal, state and local government web resources and services.